• In Deutschland
  • Länderverzeichnis
  • Für 7 Tage
  • Wassertemperatur
  • Satellitenkarten
  • Wetterkarte
  • Widgets
  • user-avatar
    Anmelden

    Stündliche Wetter Piúma

    Heute, 20 September, Donnerstag

    Zeit Temperatur Niederschläge Wind Luftdruck Luftfeuchtigkeit
    00:00 +26°C° 0 mm 4 m/S 760 mmHg 83%
    01:00 +25°C° 0 mm 4 m/S 760 mmHg 84%
    02:00 +25°C° 0 mm 4 m/S 760 mmHg 84%
    03:00 +25°C° 0 mm 3 m/S 760 mmHg 84%
    04:00 +25°C° 0 mm 3 m/S 760 mmHg 84%
    05:00 +25°C° 0 mm 4 m/S 760 mmHg 84%
    06:00 +25°C° 0 mm 4 m/S 760 mmHg 84%
    07:00 +27°C° 0 mm 4 m/S 760 mmHg 77%
    08:00 +29°C° 0 mm 4 m/S 761 mmHg 70%
    09:00 +32°C° 0 mm 5 m/S 761 mmHg 64%
    10:00 +33°C° 0.1 mm 5 m/S 761 mmHg 61%
    11:00 +33°C° 0.1 mm 5 m/S 760 mmHg 59%
    12:00 +34°C° 0.1 mm 6 m/S 760 mmHg 56%
    13:00 +34°C° 0.2 mm 6 m/S 759 mmHg 58%
    14:00 +34°C° 0.2 mm 6 m/S 759 mmHg 60%
    15:00 +33°C° 0.2 mm 7 m/S 758 mmHg 62%
    16:00 +32°C° 0.3 mm 7 m/S 759 mmHg 67%
    17:00 +29°C° 0.3 mm 6 m/S 759 mmHg 72%
    18:00 +28°C° 0.3 mm 6 m/S 759 mmHg 76%
    19:00 +27°C° 0.5 mm 6 m/S 760 mmHg 78%
    20:00 +27°C° 0.5 mm 6 m/S 760 mmHg 80%
    21:00 +26°C° 0.5 mm 6 m/S 761 mmHg 82%
    22:00 +26°C° 0.3 mm 5 m/S 761 mmHg 83%
    23:00 +26°C° 0.3 mm 5 m/S 761 mmHg 84%

    Morgen, 21 September, Freitag

    Zeit Temperatur Niederschläge Wind Luftdruck Luftfeuchtigkeit
    00:00 +26°C° 0.3 mm 5 m/S 761 mmHg 84%
    01:00 +25°C° 1 mm 4 m/S 761 mmHg 86%
    02:00 +25°C° 1 mm 4 m/S 760 mmHg 87%
    03:00 +25°C° 1 mm 3 m/S 760 mmHg 89%
    04:00 +25°C° 0.5 mm 4 m/S 760 mmHg 89%
    05:00 +23°C° 0.5 mm 4 m/S 761 mmHg 90%
    06:00 +23°C° 0.5 mm 4 m/S 761 mmHg 90%
    07:00 +25°C° 0.2 mm 4 m/S 761 mmHg 86%
    08:00 +26°C° 0.2 mm 4 m/S 761 mmHg 81%
    09:00 +27°C° 0.2 mm 4 m/S 762 mmHg 76%
    10:00 +28°C° 0 mm 5 m/S 761 mmHg 69%
    11:00 +30°C° 0 mm 5 m/S 761 mmHg 62%
    12:00 +32°C° 0 mm 5 m/S 761 mmHg 55%
    13:00 +32°C° 0 mm 6 m/S 760 mmHg 57%
    14:00 +32°C° 0 mm 6 m/S 759 mmHg 59%
    15:00 +30°C° 0 mm 6 m/S 759 mmHg 61%
    16:00 +29°C° 0.1 mm 6 m/S 759 mmHg 68%
    17:00 +27°C° 0.1 mm 6 m/S 759 mmHg 74%
    18:00 +26°C° 0.1 mm 5 m/S 759 mmHg 81%
    19:00 +26°C° 0.1 mm 5 m/S 760 mmHg 83%
    20:00 +26°C° 0.1 mm 5 m/S 760 mmHg 85%
    21:00 +25°C° 0.1 mm 5 m/S 761 mmHg 87%
    22:00 +25°C° 0.2 mm 5 m/S 761 mmHg 87%
    23:00 +25°C° 0.2 mm 5 m/S 761 mmHg 87%

    übermorgen, 22 September, Samstag

    Zeit Temperatur Niederschläge Wind Luftdruck Luftfeuchtigkeit
    00:00 +25°C° 0.2 mm 5 m/S 761 mmHg 88%
    01:00 +23°C° 0 mm 5 m/S 760 mmHg 88%
    02:00 +23°C° 0 mm 4 m/S 759 mmHg 88%
    03:00 +23°C° 0 mm 4 m/S 759 mmHg 88%
    04:00 +23°C° 0.1 mm 4 m/S 759 mmHg 87%
    05:00 +23°C° 0.1 mm 4 m/S 759 mmHg 87%
    06:00 +23°C° 0.1 mm 4 m/S 760 mmHg 86%
    07:00 +26°C° 0.1 mm 4 m/S 760 mmHg 79%
    08:00 +28°C° 0.1 mm 4 m/S 760 mmHg 71%
    09:00 +29°C° 0.1 mm 4 m/S 761 mmHg 63%
    10:00 +30°C° 0 mm 4 m/S 760 mmHg 61%
    11:00 +32°C° 0 mm 5 m/S 760 mmHg 59%
    12:00 +33°C° 0 mm 5 m/S 760 mmHg 57%
    13:00 +32°C° 0.4 mm 6 m/S 759 mmHg 62%
    14:00 +32°C° 0.4 mm 6 m/S 758 mmHg 67%
    15:00 +30°C° 0.4 mm 6 m/S 758 mmHg 71%
    16:00 +29°C° 0.4 mm 6 m/S 758 mmHg 76%
    17:00 +27°C° 0.4 mm 6 m/S 758 mmHg 81%
    18:00 +26°C° 0.4 mm 6 m/S 759 mmHg 85%
    19:00 +26°C° 0.2 mm 5 m/S 759 mmHg 86%
    20:00 +26°C° 0.2 mm 5 m/S 760 mmHg 88%
    21:00 +25°C° 0.2 mm 5 m/S 760 mmHg 89%
    22:00 +25°C° 0 mm 5 m/S 760 mmHg 89%
    23:00 +25°C° 0 mm 5 m/S 760 mmHg 89%

    23 September, Sonntag

    Zeit Temperatur Niederschläge Wind Luftdruck Luftfeuchtigkeit
    00:00 +25°C° 0 mm 5 m/S 760 mmHg 89%
    01:00 +25°C° 0 mm 5 m/S 760 mmHg 90%
    02:00 +23°C° 0 mm 4 m/S 759 mmHg 90%
    03:00 +23°C° 0 mm 4 m/S 759 mmHg 90%
    04:00 +23°C° 0 mm 4 m/S 759 mmHg 90%
    05:00 +23°C° 0 mm 4 m/S 760 mmHg 90%
    06:00 +23°C° 0 mm 4 m/S 760 mmHg 90%
    07:00 +26°C° 0 mm 4 m/S 761 mmHg 83%
    08:00 +27°C° 0 mm 4 m/S 761 mmHg 76%
    09:00 +29°C° 0 mm 4 m/S 761 mmHg 69%
    10:00 +30°C° 0.1 mm 5 m/S 761 mmHg 67%
    11:00 +30°C° 0.1 mm 5 m/S 761 mmHg 65%
    12:00 +32°C° 0.1 mm 6 m/S 760 mmHg 63%
    13:00 +32°C° 0.3 mm 6 m/S 760 mmHg 66%
    14:00 +30°C° 0.3 mm 6 m/S 759 mmHg 68%
    15:00 +30°C° 0.3 mm 6 m/S 758 mmHg 71%
    16:00 +28°C° 0.1 mm 6 m/S 759 mmHg 75%
    17:00 +27°C° 0.1 mm 6 m/S 759 mmHg 79%
    18:00 +26°C° 0.1 mm 6 m/S 759 mmHg 83%
    19:00 +26°C° 0 mm 6 m/S 760 mmHg 84%
    20:00 +26°C° 0 mm 6 m/S 760 mmHg 85%
    21:00 +25°C° 0 mm 5 m/S 761 mmHg 86%
    22:00 +25°C° 0 mm 5 m/S 761 mmHg 87%
    23:00 +25°C° 0 mm 5 m/S 761 mmHg 87%

    24 September, Montag

    Zeit Temperatur Niederschläge Wind Luftdruck Luftfeuchtigkeit
    00:00 +23°C° 0 mm 5 m/S 760 mmHg 87%
    01:00 +23°C° 0 mm 5 m/S 760 mmHg 87%
    02:00 +23°C° 0 mm 4 m/S 760 mmHg 87%
    03:00 +23°C° 0 mm 4 m/S 759 mmHg 87%
    04:00 +23°C° 0 mm 4 m/S 760 mmHg 87%
    05:00 +23°C° 0 mm 4 m/S 760 mmHg 87%
    06:00 +23°C° 0 mm 4 m/S 761 mmHg 86%
    07:00 +26°C° 0 mm 4 m/S 761 mmHg 79%
    08:00 +27°C° 0 mm 4 m/S 761 mmHg 71%
    09:00 +29°C° 0 mm 5 m/S 761 mmHg 63%
    10:00 +30°C° 0 mm 5 m/S 761 mmHg 59%
    11:00 +33°C° 0 mm 6 m/S 760 mmHg 56%
    12:00 +34°C° 0 mm 6 m/S 760 mmHg 52%
    13:00 +33°C° 0.2 mm 6 m/S 759 mmHg 56%
    14:00 +33°C° 0.2 mm 6 m/S 758 mmHg 61%
    15:00 +32°C° 0.2 mm 7 m/S 758 mmHg 65%
    16:00 +30°C° 0.2 mm 7 m/S 758 mmHg 70%
    17:00 +28°C° 0.2 mm 7 m/S 758 mmHg 75%
    18:00 +27°C° 0.2 mm 6 m/S 759 mmHg 81%
    19:00 +26°C° 0 mm 6 m/S 759 mmHg 82%
    20:00 +26°C° 0 mm 6 m/S 759 mmHg 84%
    21:00 +24°C° 0 mm 6 m/S 760 mmHg 85%
    22:00 +24°C° 0 mm 6 m/S 760 mmHg 85%
    23:00 +25°C° 0 mm 5 m/S 759 mmHg 86%

    25 September, Dienstag

    Zeit Temperatur Niederschläge Wind Luftdruck Luftfeuchtigkeit
    00:00 +25°C° 0 mm 5 m/S 759 mmHg 86%
    01:00 +23°C° 0 mm 5 m/S 759 mmHg 86%
    02:00 +23°C° 0 mm 5 m/S 758 mmHg 85%
    03:00 +23°C° 0 mm 5 m/S 758 mmHg 85%
    04:00 +23°C° 0 mm 5 m/S 758 mmHg 85%
    05:00 +23°C° 0 mm 5 m/S 759 mmHg 84%
    06:00 +23°C° 0 mm 4 m/S 759 mmHg 84%
    07:00 +26°C° 0 mm 4 m/S 759 mmHg 74%
    08:00 +28°C° 0 mm 4 m/S 760 mmHg 65%
    09:00 +30°C° 0 mm 4 m/S 760 mmHg 56%
    10:00 +32°C° 0 mm 5 m/S 759 mmHg 53%
    11:00 +34°C° 0 mm 5 m/S 759 mmHg 49%
    12:00 +35°C° 0 mm 5 m/S 758 mmHg 45%
    13:00 +34°C° 0 mm 6 m/S 758 mmHg 51%
    14:00 +33°C° 0 mm 6 m/S 757 mmHg 56%
    15:00 +32°C° 0 mm 6 m/S 757 mmHg 61%
    16:00 +30°C° 0 mm 6 m/S 757 mmHg 68%
    17:00 +28°C° 0 mm 6 m/S 757 mmHg 74%
    18:00 +27°C° 0 mm 6 m/S 758 mmHg 81%
    19:00 +27°C° 0.2 mm 6 m/S 758 mmHg 83%
    20:00 +26°C° 0.2 mm 6 m/S 759 mmHg 85%
    21:00 +26°C° 0.2 mm 6 m/S 759 mmHg 87%
    22:00 +26°C° 0 mm 5 m/S 759 mmHg 87%
    23:00 +25°C° 0 mm 5 m/S 759 mmHg 87%
    Mehr zeigen